Hourly Weather Dzierzyslaw

Today, 6 May, Thursday

Time Temperature Precipitation Wind Pressure Humidity
00:00 +2°C° 0 mm 5 mps 733 mmHg 78%
01:00 +3°C° 0 mm 4 mps 734 mmHg 81%
02:00 +1°C° 0 mm 4 mps 734 mmHg 83%
03:00 +1°C° 0 mm 4 mps 734 mmHg 85%
04:00 +1°C° 0 mm 3 mps 734 mmHg 87%
05:00 +3°C° 0 mm 4 mps 735 mmHg 82%
06:00 +4°C° 0 mm 4 mps 735 mmHg 76%
07:00 +5°C° 0 mm 4 mps 735 mmHg 71%
08:00 +7°C° 0 mm 5 mps 735 mmHg 65%
09:00 +8°C° 0 mm 6 mps 735 mmHg 59%
10:00 +9°C° 0 mm 7 mps 735 mmHg 54%
11:00 +10°C° 0.2 mm 7 mps 735 mmHg 56%
12:00 +10°C° 0.2 mm 7 mps 734 mmHg 58%
13:00 +10°C° 0.2 mm 8 mps 734 mmHg 60%
14:00 +10°C° 0.2 mm 7 mps 734 mmHg 62%
15:00 +10°C° 0.2 mm 7 mps 734 mmHg 63%
16:00 +10°C° 0.2 mm 6 mps 733 mmHg 65%
17:00 +9°C° 0.1 mm 6 mps 733 mmHg 69%
18:00 +9°C° 0.1 mm 6 mps 733 mmHg 73%
19:00 +8°C° 0.1 mm 5 mps 733 mmHg 77%
20:00 +7°C° 0 mm 6 mps 733 mmHg 75%
21:00 +7°C° 0 mm 6 mps 732 mmHg 74%
22:00 +7°C° 0 mm 6 mps 732 mmHg 73%
23:00 +7°C° 0.2 mm 5 mps 732 mmHg 77%

Tomorrow, 7 May, Friday

Time Temperature Precipitation Wind Pressure Humidity
00:00 +6°C° 0.2 mm 4 mps 731 mmHg 80%
01:00 +6°C° 0.2 mm 4 mps 731 mmHg 84%
02:00 +6°C° 0.1 mm 4 mps 731 mmHg 84%
03:00 +6°C° 0.1 mm 5 mps 730 mmHg 84%
04:00 +6°C° 0.1 mm 5 mps 730 mmHg 84%
05:00 +5°C° 0 mm 6 mps 730 mmHg 83%
06:00 +7°C° 0 mm 6 mps 730 mmHg 82%
07:00 +8°C° 0 mm 7 mps 730 mmHg 81%
08:00 +8°C° 0.1 mm 7 mps 730 mmHg 78%
09:00 +9°C° 0.1 mm 7 mps 731 mmHg 76%
10:00 +9°C° 0.1 mm 7 mps 731 mmHg 73%
11:00 +9°C° 0.1 mm 8 mps 732 mmHg 67%
12:00 +10°C° 0.1 mm 8 mps 732 mmHg 61%
13:00 +10°C° 0.1 mm 9 mps 732 mmHg 55%
14:00 +10°C° 0 mm 8 mps 733 mmHg 56%
15:00 +9°C° 0 mm 8 mps 733 mmHg 57%
16:00 +9°C° 0 mm 7 mps 734 mmHg 58%
17:00 +8°C° 0 mm 6 mps 735 mmHg 63%
18:00 +6°C° 0 mm 5 mps 735 mmHg 69%
19:00 +5°C° 0 mm 3 mps 736 mmHg 74%
20:00 +4°C° 0 mm 3 mps 737 mmHg 78%
21:00 +3°C° 0 mm 3 mps 737 mmHg 81%
22:00 +1°C° 0 mm 3 mps 738 mmHg 85%
23:00 +2°C° 0 mm 2 mps 739 mmHg 86%

Day after tomorrow, 8 May, Saturday

Time Temperature Precipitation Wind Pressure Humidity
00:00 +2°C° 0 mm 2 mps 739 mmHg 87%
01:00 +1°C° 0 mm 2 mps 739 mmHg 88%
02:00 +1°C° 0 mm 2 mps 740 mmHg 88%
03:00 +1°C° 0 mm 2 mps 740 mmHg 87%
04:00 0°C° 0 mm 3 mps 741 mmHg 86%
05:00 +1°C° 0 mm 3 mps 741 mmHg 80%
06:00 +3°C° 0 mm 3 mps 741 mmHg 73%
07:00 +5°C° 0 mm 3 mps 741 mmHg 66%
08:00 +7°C° 0 mm 3 mps 741 mmHg 61%
09:00 +9°C° 0 mm 3 mps 742 mmHg 55%
10:00 +10°C° 0 mm 3 mps 742 mmHg 50%
11:00 +11°C° 0.1 mm 3 mps 741 mmHg 49%
12:00 +11°C° 0.1 mm 3 mps 741 mmHg 47%
13:00 +12°C° 0.1 mm 3 mps 741 mmHg 46%
14:00 +12°C° 0 mm 3 mps 741 mmHg 48%
15:00 +12°C° 0 mm 3 mps 741 mmHg 50%
16:00 +12°C° 0 mm 3 mps 741 mmHg 52%
17:00 +10°C° 0 mm 2 mps 741 mmHg 59%
18:00 +10°C° 0 mm 1 mps 741 mmHg 66%
19:00 +7°C° 0 mm 0 mps 741 mmHg 73%
20:00 +7°C° 0 mm 1 mps 741 mmHg 74%
21:00 +7°C° 0 mm 1 mps 742 mmHg 75%
22:00 +5°C° 0 mm 2 mps 742 mmHg 76%
23:00 +5°C° 0 mm 2 mps 742 mmHg 76%

9 May, Sunday

Time Temperature Precipitation Wind Pressure Humidity
00:00 +5°C° 0 mm 2 mps 742 mmHg 75%
01:00 +5°C° 0 mm 2 mps 742 mmHg 75%
02:00 +4°C° 0 mm 3 mps 741 mmHg 74%
03:00 +3°C° 0 mm 3 mps 741 mmHg 74%
04:00 +3°C° 0 mm 3 mps 741 mmHg 73%
05:00 +5°C° 0 mm 3 mps 741 mmHg 69%
06:00 +7°C° 0 mm 4 mps 741 mmHg 66%
07:00 +9°C° 0 mm 5 mps 741 mmHg 63%
08:00 +10°C° 0 mm 6 mps 741 mmHg 59%
09:00 +12°C° 0 mm 7 mps 740 mmHg 56%
10:00 +14°C° 0 mm 7 mps 740 mmHg 52%
11:00 +15°C° 0 mm 8 mps 740 mmHg 51%
12:00 +16°C° 0 mm 8 mps 740 mmHg 50%
13:00 +17°C° 0 mm 8 mps 740 mmHg 49%
14:00 +17°C° 0 mm 8 mps 739 mmHg 51%
15:00 +17°C° 0 mm 7 mps 739 mmHg 53%
16:00 +17°C° 0 mm 7 mps 739 mmHg 55%
17:00 +15°C° 0 mm 6 mps 739 mmHg 58%
18:00 +14°C° 0 mm 6 mps 739 mmHg 60%
19:00 +13°C° 0 mm 5 mps 738 mmHg 63%
20:00 +12°C° 0 mm 5 mps 738 mmHg 62%
21:00 +12°C° 0 mm 5 mps 738 mmHg 62%
22:00 +10°C° 0 mm 5 mps 738 mmHg 62%
23:00 +9°C° 0 mm 5 mps 738 mmHg 64%

10 May, Monday

Time Temperature Precipitation Wind Pressure Humidity
00:00 +9°C° 0 mm 5 mps 738 mmHg 66%
01:00 +10°C° 0 mm 4 mps 737 mmHg 68%
02:00 +8°C° 0 mm 4 mps 737 mmHg 69%
03:00 +8°C° 0 mm 4 mps 737 mmHg 70%
04:00 +9°C° 0 mm 3 mps 737 mmHg 71%
05:00 +10°C° 0 mm 4 mps 737 mmHg 69%
06:00 +12°C° 0 mm 4 mps 737 mmHg 68%
07:00 +13°C° 0 mm 4 mps 737 mmHg 66%
08:00 +15°C° 0 mm 5 mps 737 mmHg 63%
09:00 +17°C° 0 mm 6 mps 737 mmHg 59%
10:00 +20°C° 0 mm 7 mps 737 mmHg 56%
11:00 +20°C° 0 mm 7 mps 737 mmHg 56%
12:00 +21°C° 0 mm 7 mps 737 mmHg 56%
13:00 +21°C° 0 mm 8 mps 736 mmHg 56%
14:00 +21°C° 0 mm 7 mps 737 mmHg 59%
15:00 +21°C° 0 mm 7 mps 737 mmHg 61%
16:00 +21°C° 0 mm 6 mps 737 mmHg 64%
17:00 +20°C° 0 mm 5 mps 736 mmHg 68%
18:00 +18°C° 0 mm 4 mps 736 mmHg 72%
19:00 +17°C° 0 mm 4 mps 736 mmHg 77%
20:00 +16°C° 0 mm 3 mps 735 mmHg 78%
21:00 +16°C° 0 mm 3 mps 735 mmHg 79%
22:00 +14°C° 0 mm 3 mps 735 mmHg 81%
23:00 +14°C° 0 mm 3 mps 734 mmHg 81%

11 May, Tuesday

Time Temperature Precipitation Wind Pressure Humidity
00:00 +14°C° 0 mm 4 mps 734 mmHg 81%
01:00 +13°C° 0 mm 4 mps 733 mmHg 81%
02:00 +13°C° 0 mm 4 mps 733 mmHg 80%
03:00 +14°C° 0 mm 4 mps 733 mmHg 79%
04:00 +14°C° 0 mm 4 mps 733 mmHg 78%
05:00 +15°C° 0 mm 5 mps 733 mmHg 75%
06:00 +16°C° 0 mm 5 mps 733 mmHg 73%
07:00 +17°C° 0 mm 6 mps 733 mmHg 70%
08:00 +19°C° 0 mm 6 mps 733 mmHg 68%
09:00 +20°C° 0 mm 7 mps 734 mmHg 65%
10:00 +21°C° 0 mm 7 mps 734 mmHg 63%
11:00 +22°C° 0 mm 7 mps 734 mmHg 61%
12:00 +23°C° 0 mm 7 mps 734 mmHg 59%
13:00 +24°C° 0 mm 7 mps 734 mmHg 58%
14:00 +24°C° 0 mm 7 mps 734 mmHg 58%
15:00 +24°C° 0 mm 7 mps 733 mmHg 59%
16:00 +24°C° 0 mm 6 mps 733 mmHg 60%
17:00 +23°C° 0 mm 6 mps 733 mmHg 63%
18:00 +21°C° 0 mm 6 mps 732 mmHg 65%
19:00 +20°C° 0 mm 6 mps 732 mmHg 68%
20:00 +19°C° 0 mm 5 mps 732 mmHg 69%
21:00 +19°C° 0 mm 5 mps 732 mmHg 70%
22:00 +18°C° 0 mm 4 mps 732 mmHg 71%
23:00 +17°C° 0 mm 4 mps 731 mmHg 73%
Show more

We Need Your Consent

Meteoprog and our Service Providers may store and access personal data such as cookies, device identifiers or other similar technologies on your device and process such data to personalise content and ads, as well as provide social media features and to analyse the traffic.

  • Store and/or access information on your device

    Cookies, device identifiers or other information can be stored or accessed on your device for the purposes indicated above.

  • Personalised ads and content, ad and content measurement, audience insights, and products development

    Ads and content can be personalised based on a profile. More data can be added to better personalise ads and content. Ad and content performance can be measured. Insights about the audience who saw the ads and content can be derived. Such data can be used to develop or improve user’s experience, systems and software.

By clicking ‘I Agree’ you will allow the use of indicated cookies, device identifiers, web beacons or other similar technologies. Your settings can be changed in the browser on your device.

For certain purposes, legitimate interests may be relied on, rather than consent. You can read more about this in our Privacy and Cookie Policy.